Current weather by "City, St" or "zip code"  
 

Current Conditions: Logan-Cache Airport, UT

Fair


39.0 F

Last Updated on Oct 23 2020, 7:51 pm MDT
Humidity: 34%
Wind Speed: NE 6.9 mph
Barometer 30.07 in
Dewpoint: 12.9 F
Visibility: 10.00 mi
Precip: --
Heat Index: NA
Wind Chill: 34 F
Current conditions at:

Logan-Cache Airport, UT (KLGU)

Lat: 41.78652 Lon: 111.85187

Local Radar Image active severe weather and emergency alerts image image weather storm and storm spotter reports image weather observation monitoring service image
Local
Radar
Active
Alerts
Storm Reports Obs
Monitoring

Sign-up For Email & Text Message Weather Alert Notification Services



Advertise Here

Observation History for Logan-Cache Airport, UT


Time Wind
(mph)
Vis
(mi)
Weather Precip (in) Temperature (F) Relative
Humidity
Wind
Chill
(F)
Heat
Index
(F)
Pressure
Air Dwpt altimeter
(in)
sea level
(mb)
Rmks
7:51 pm MDT NE 6.9 10.00 Fair -- 39.0 12.9 34% 34 NA 30.07 1020.0
6:51 pm MDT N 8.1 10.00 Fair -- 39.0 15.1 38% 33 NA 30.07 1020.2
5:51 pm MDT N 4.6 10.00 Fair -- 47.0 12.0 24% 45 NA 30.08 1019.8
4:51 pm MDT NE 5.8 10.00 Fair -- 48.0 12.9 24% 45 NA 30.10 1020.3
3:51 pm MDT N 0.0 10.00 Fair -- 48.0 12.0 23% NA NA 30.11 1020.5
2:51 pm MDT W 5.8 10.00 Fair -- 45.0 12.9 27% 42 NA 30.14 1021.8
1:51 pm MDT N 0.0 10.00 Fair -- 42.0 12.9 30% NA NA 30.18 1023.1
12:51 pm MDT 4.6 10.00 Fair -- 40.0 14.0 35% 37 NA 30.22 1024.8
11:51 am MDT N 0.0 10.00 Fair -- 35.0 12.9 40% NA NA 30.24 1026.0
10:51 am MDT N 0.0 10.00 Fair -- 31.0 12.9 47% NA NA 30.28 1027.3
9:51 am MDT N 0.0 10.00 Fair -- 27.0 14.0 58% NA NA 30.29 1028.3
8:51 am MDT N 0.0 10.00 Fair -- 24.0 16.0 71% NA NA 30.29 1028.4
7:51 am MDT N 0.0 10.00 Fair -- 20.0 14.0 78% NA NA 30.28 1027.8
6:51 am MDT W 3.5 10.00 Fair -- 19.0 12.0 74% NA NA 30.28 1027.7
5:51 am MDT N 0.0 10.00 Fair -- 20.0 12.9 74% NA NA 30.28 1027.1
4:51 am MDT N 0.0 10.00 Fair -- 21.0 14.0 74% NA NA 30.27 1026.7
3:51 am MDT N 0.0 10.00 Fair -- 23.0 12.9 65% NA NA 30.28 1026.4
2:51 am MDT N 0.0 10.00 Fair -- 25.0 14.0 63% NA NA 30.27 1026.0
1:51 am MDT N 0.0 10.00 Fair -- 28.0 14.0 56% NA NA 30.27 1025.8
12:51 am MDT N 0.0 10.00 Fair -- 25.0 15.1 66% NA NA 30.28 1026.8
11:51 pm MDT W 3.5 10.00 Fair -- 27.0 12.9 55% NA NA 30.27 1026.0
10:51 pm MDT N 0.0 10.00 Fair -- 29.0 12.0 49% NA NA 30.26 1025.5
9:51 pm MDT N 0.0 10.00 Fair -- 29.0 12.9 51% NA NA 30.24 1025.2
8:51 pm MDT NW 9.2 10.00 Fair -- 30.0 10.9 45% 22 NA 30.22 1024.3

Regional Weather Observation


Ogden-Hinckley Airport, UT (KOGD)

Fair
43.0 F

Soda Springs/Tigert, ID (KU78)

Mostly Cloudy
68.0 F

Hill Air Force Base, UT (KHIF)

Fair
41.0 F

Pocatello, Pocatello Regional Airport, ID (KPIH)

Fair
44.0 F

Evanston, Evanston-Uinta County Burns Field, WY (KEVW)

Fair
33.0 F

Burley Municipal Airport, ID (KBYI)

Fair
39.0 F